Tracking 30696 objects as of 15-Jun-2025
HD Live streaming from Space Station
objects crossing your sky now

ELEKTRON 3

Track ELEKTRON 3 now!
10-day predictions
ELEKTRON 3 is classified as:


NORAD ID: 829
Int'l Code: 1964-038A
Perigee: 412.0 km
Apogee: 6,084.4 km
Inclination: 60.8 °
Period: 156.5 minutes
Semi major axis: 9619 km
RCS: 2.8255 m2 (large)
Launch date: July 10, 1964
Source: Commonwealth of Independent States (former USSR) (CIS)
Launch site: TYURATAM MISSILE AND SPACE COMPLEX (TTMTR)
Your satellite tracking list
Your tracking list is empty




NASA's NSSDC Master Catalog

Two Line Element Set (TLE):
1 00829U 64038A   25165.49102465  .00000789  00000-0  21771-3 0  9995
2 00829  60.8272 349.7870 2948488 250.5282  75.6643  9.20221594981587
Source of the keplerian elements: AFSPC